Вернуться в каталог

SL-8 R/B

АктивенPO
NORAD 13066·ROCKET BODY·🇷🇺 Russia

Запущен Feb 17, 1982 с Plesetsk Cosmodrome

Loading…

Ближайшие Пролёты (ближайшие 24 часа)

TLE

СвежийSource: Space-Track

Эпоха: Sep 14, 2026, 08:13 UTC

1 13066U 82012B   26257.34247171  .00000119  00000-0  10325-3 0  9995
2 13066  82.8972 213.6265 0044181 149.2546   2.9267 13.77411242239673

Отслеживайте SL-8 R/B в реальном времени с AllMySat

Download on the App Store